Home   Weather   Guatemala City   Past weeks

Flag for Guatemala Past Weather in Guatemala City, Guatemala — Yesterday and Last 2 Weeks

Now
66 °F

Passing clouds.


Feels Like: 66 °F
Forecast: 55 / 71 °F
Wind: 18 mph from North

Location: Guatemala Aeropuertola Aurora

Current Time: Dec 9, 2016 at 7:02:32 pm

Latest Report: Dec 9, 2016 at 6:00 pm


Visibility: N/A

Pressure: 30.30 "Hg (25.33 "Hg at 1533m altitude)

Humidity: 68%

Dew Point: 55 °F

Location of Guatemala CityLocation

Past Weather in Guatemala City — Graph

°F

Guatemala City Temperature Yesterday

Maximum temperature yesterday: 77 °F (at 1:00 pm)
Minimum temperature yesterday: 63 °F (at 4:00 am)
Average temperature yesterday: 68 °F

High & Low Weather Summary for the Past Weeks

 TemperatureHumidityPressure
High79 °F (Dec 1, 2:00 pm)100% (Nov 29, 1:00 am)30.39 "Hg (Nov 29, 1:00 am)
Low57 °F (Nov 25, 4:00 am)39% (Dec 2, 2:00 pm)30.12 "Hg (Nov 28, 3:00 pm)
Average67 °F77%30.25 "Hg
* Reported Nov 24 6:00 pm — Dec 9 6:00 pm, Guatemala City, Weather by CustomWeather, © 2016

Note: Actual official high and low records may vary slightly from our data, if they occured in-between our weather recording intervals... More about our weather records

Advertising

Guatemala City Weather History for the Previous 24 Hours

Scroll right to see more
 ConditionsComfort  
Time TempWeatherWind HumidityBarometerVisibility
6:00 pm
Fri, Dec 9
66 °FPassing clouds.18 mph68%30.30 "HgN/A
5:00 pm70 °FScattered clouds.18 mph60%30.30 "HgN/A
4:00 pm70 °FScattered clouds.7 mph57%30.27 "HgN/A
3:00 pm73 °FPartly sunny.16 mph50%30.27 "HgN/A
2:00 pm73 °FPassing clouds.18 mph50%30.30 "HgN/A
1:00 pm73 °FPassing clouds.21 mph50%30.33 "HgN/A
12:00 pm73 °FPassing clouds.21 mph44%30.33 "HgN/A
11:00 am73 °FSunny.21 mph41%30.36 "Hg10 mi
10:00 am70 °FPassing clouds.18 mph50%30.39 "HgN/A
9:00 am66 °FSunny.18 mph60%30.39 "Hg10 mi
8:00 am63 °FSunny.14 mph77%30.36 "Hg10 mi
7:00 am59 °FScattered clouds.14 mph88%30.36 "HgN/A
6:00 am59 °FPassing clouds.14 mph94%30.33 "HgN/A
5:00 am59 °FPassing clouds.14 mph94%30.33 "HgN/A
4:00 am61 °FPassing clouds.14 mph94%30.30 "HgN/A
3:00 am61 °FPassing clouds.16 mph94%30.30 "HgN/A
2:00 am61 °FPassing clouds.16 mph94%30.33 "HgN/A
1:00 am61 °FPassing clouds.16 mph94%30.33 "HgN/A
12:00 am61 °FClear.7 mph100%30.33 "Hg10 mi
11:00 pm
Thu, Dec 8
64 °FClear.9 mph94%30.36 "Hg10 mi
10:00 pm63 °FClear.12 mph77%30.36 "Hg10 mi
9:00 pm66 °FPassing clouds.9 mph68%30.36 "HgN/A
8:00 pm66 °FClear.5 mph68%30.33 "Hg10 mi
7:00 pm68 °FClear.9 mph64%30.30 "Hg10 mi
Weather by CustomWeather, © 2016

See weather overviewHow to use our weather pages